Вернуться в каталог

ATLAS 5 CENTAUR DEB

LostHEO
NORAD 51478·DEBRIS·🇺🇸 United States

Запущен Sep 17, 2014 с Cape Canaveral Space Force Station

Loading…

Ближайшие Пролёты (ближайшие 24 часа)

TLE

УстаревшееSource: Space-Track

Эпоха: Dec 26, 2024, 23:32 UTC

1 51478U 14055DJ  24361.98059147 -.00000038  00000-0  00000-0 0  9991
2 51478  20.0114 255.3624 4406966 321.7001  14.1744  1.66607510 15437

Отслеживайте ATLAS 5 CENTAUR DEB в реальном времени с AllMySat

Download on the App Store